New York, NY

11:56 PM EDT on June 25, 2017 (GMT -0400)
La Guardia

Weather History for KLGA - October, 2014

Change the Weather History Date:

Wednesday, October 15, 2014

  Actual Average Record
Temperature  
Mean Temperature 73 °F 58 °F  
Max Temperature 78 °F 66 °F 83 °F (1956)
Min Temperature 68 °F 51 °F 39 °F (2009)
Degree Days  
Heating Degree Days 0 7  
Month to date heating degree days 53 81  
Since 1 July heating degree days 66 116  
Cooling Degree Days 8 1  
Month to date cooling degree days 20 20  
Year to date cooling degree days 1188 1210  
Growing Degree Days 23 (Base 50)    
Moisture  
Dew Point 66 °F    
Average Humidity 79    
Maximum Humidity 84    
Minimum Humidity 74    
Precipitation  
Precipitation 0.03 in 0.13 in 0.95 in (1955)
Month to date precipitation 1.50 1.88  
Year to date precipitation 37.80 35.86  
Snow  
Snow 0.00 in 0.00 in - ()
Month to date snowfall 0.0 0.0  
Since 1 July snowfall 0.0 0.0  
Snow Depth 0.00 in    
Sea Level Pressure  
Sea Level Pressure 29.96 in    
Wind  
Wind Speed 15 mph (SSE)    
Max Wind Speed 25 mph    
Max Gust Speed 32 mph    
Visibility 10 miles    
Events Rain    
T = Trace of Precipitation, MM = Missing Value Source: NWS Daily Summary

Daily Weather History Graph

Daily Weather History Graph

Search for Another Location

Airport or City:

Trip Planner

Search our weather history database for the weather conditions in past years. The results will help you decide how hot, cold, wet, or windy it might be!

Date:

Astronomy

Oct. 15, 2014 Rise Set
Actual Time 7:06 AM EDT 6:15 PM EDT
Civil Twilight 6:39 AM EDT 6:42 PM EDT
Nautical Twilight 6:07 AM EDT 7:14 PM EDT
Astronomical Twilight 5:35 AM EDT 7:46 PM EDT
Moon No Moon Rise 1:47 PM EDT (10/15)
Length of Visible Light 12h 03m
Length of Day
11h 08m
Waning Gibbous, 51% of the Moon is Illuminated
Oct 15
Waning Gibbous
Oct 15
Last Quarter
Oct 23
New
Oct 30
First Quarter
Nov 6
Full

Hourly Weather History & Observations

Time (EDT) Temp. Dew Point Humidity Pressure Visibility Wind Dir Wind Speed Gust Speed Precip Events Conditions
12:51 AM 69.1 °F 64.0 °F 84% 30.10 in 10.0 mi South 12.7 mph - N/A   Mostly Cloudy
1:51 AM 69.8 °F 64.4 °F 83% 30.09 in 10.0 mi South 11.5 mph - N/A   Mostly Cloudy
2:51 AM 69.1 °F 64.0 °F 84% 30.08 in 10.0 mi South 10.4 mph - N/A   Mostly Cloudy
3:51 AM 69.1 °F 64.0 °F 84% 30.06 in 10.0 mi South 12.7 mph - N/A   Mostly Cloudy
4:51 AM 69.1 °F 64.9 °F 87% 30.06 in 10.0 mi South 12.7 mph - N/A   Scattered Clouds
5:51 AM 69.1 °F 64.9 °F 87% 30.04 in 10.0 mi SSE 12.7 mph - N/A   Mostly Cloudy
6:51 AM 70.0 °F 64.9 °F 84% 30.04 in 10.0 mi South 12.7 mph - N/A   Mostly Cloudy
7:51 AM 71.1 °F 66.0 °F 84% 30.04 in 10.0 mi South 12.7 mph - N/A   Mostly Cloudy
8:51 AM 72.0 °F 66.0 °F 81% 30.04 in 10.0 mi South 15.0 mph 21.9 mph N/A   Mostly Cloudy
9:51 AM 73.9 °F 66.0 °F 76% 30.04 in 10.0 mi SSE 18.4 mph 27.6 mph N/A   Mostly Cloudy
10:51 AM 73.9 °F 66.0 °F 76% 30.03 in 10.0 mi SSE 15.0 mph 24.2 mph N/A   Overcast
11:51 AM 75.9 °F 66.0 °F 71% 30.01 in 10.0 mi South 16.1 mph 25.3 mph 0.00 in   Mostly Cloudy
12:51 PM 75.0 °F 66.9 °F 76% 29.98 in 10.0 mi South 13.8 mph 24.2 mph 0.00 in Rain Light Rain
1:51 PM 75.9 °F 66.0 °F 71% 29.96 in 10.0 mi SSE 19.6 mph 28.8 mph 0.00 in   Mostly Cloudy
2:51 PM 75.9 °F 66.0 °F 71% 29.94 in 10.0 mi SSE 20.7 mph 29.9 mph N/A   Overcast
3:51 PM 75.9 °F 66.0 °F 71% 29.93 in 10.0 mi South 19.6 mph 26.5 mph N/A   Overcast
4:51 PM 75.0 °F 66.0 °F 73% 29.91 in 10.0 mi SSE 15.0 mph 23.0 mph N/A   Overcast
5:51 PM 73.9 °F 66.9 °F 79% 29.91 in 10.0 mi SSE 23.0 mph 27.6 mph 0.00 in Rain Light Rain
6:14 PM 73.4 °F 66.2 °F 78% 29.90 in 10.0 mi SSE 13.8 mph 29.9 mph 0.00 in Rain Light Rain
6:47 PM 73.4 °F 66.2 °F 78% 29.90 in 10.0 mi SSE 16.1 mph 21.9 mph 0.00 in   Overcast
6:51 PM 73.0 °F 66.9 °F 81% 29.90 in 10.0 mi SSE 12.7 mph 26.5 mph 0.00 in   Overcast
7:09 PM 73.4 °F 66.2 °F 78% 29.90 in 10.0 mi SSE 16.1 mph - N/A   Mostly Cloudy
7:28 PM 73.4 °F 66.2 °F 78% 29.90 in 10.0 mi SSE 16.1 mph 26.5 mph 0.00 in   Mostly Cloudy
7:47 PM 73.4 °F 66.2 °F 78% 29.90 in 10.0 mi SSE 13.8 mph 24.2 mph 0.00 in   Overcast
7:51 PM 73.0 °F 66.9 °F 81% 29.90 in 10.0 mi SSE 16.1 mph 24.2 mph 0.00 in Rain Light Rain
8:51 PM 72.0 °F 66.9 °F 84% 29.89 in 10.0 mi SSE 17.3 mph 27.6 mph 0.00 in   Overcast
8:58 PM 71.6 °F 66.2 °F 83% 29.88 in 10.0 mi SSE 18.4 mph 28.8 mph N/A   Overcast
9:46 PM 71.6 °F 66.2 °F 83% 29.88 in 10.0 mi SSE 13.8 mph 27.6 mph 0.00 in   Overcast
9:51 PM 71.1 °F 66.9 °F 87% 29.88 in 10.0 mi South 16.1 mph - 0.00 in   Overcast
10:08 PM 71.6 °F 66.2 °F 83% 29.87 in 10.0 mi SSE 17.3 mph 23.0 mph N/A   Overcast
10:51 PM 71.1 °F 66.9 °F 87% 29.86 in 8.0 mi South 13.8 mph 21.9 mph 0.01 in Rain Light Rain
11:42 PM 71.6 °F 66.2 °F 83% 29.84 in 10.0 mi South 18.4 mph 27.6 mph 0.02 in   Overcast
11:51 PM 71.1 °F 66.9 °F 87% 29.84 in 10.0 mi South 16.1 mph 24.2 mph 0.02 in   Mostly Cloudy